Regional Weather Roundup
Issued by NWS

Home | Current Version | Previous Version | Graphics & Text | Print | Product List | Glossary On
Versions: 1 2 3 4 5 6 7 8 9 10 11 12 13 14 15 16 17 18 19 20 21 22 23 24 25 26 27 28 29 30 31 32 33 34 35 36 37 38 39 40 41 42 43 44 45 46 47 48 49 50
115
ASUS45 KBOU 231407
RWRCO

WEATHER ROUNDUP FOR COLORADO
NATIONAL WEATHER SERVICE DENVER/BOULDER CO
800 AM MDT MON MAY 23 2016

NOTE: "FAIR" INDICATES FEW OR NO CLOUDS BELOW 12000 FEET WITH NO
SIGNIFICANT WEATHER AND/OR OBSTRUCTIONS TO VISIBILITY.

COZ001>005-013-030-031-231500-
...NORTHWEST COLORADO...

CITY           SKY/WX    TMP DP  RH WIND       PRES   REMARKS
CRAIG          FAIR      39  33  79 CALM      30.01F
HAYDEN         FAIR      39  30  70 SE7       30.01F
MEEKER         FAIR      41  30  65 CALM      30.00F
MOUNT WERNER   NOT AVBL
STEAMBOAT SPGS FAIR      36  31  84 CALM      30.02F
WALDEN         FAIR      36  30  80 SE5       30.05F
$$

COZ006>008-011-231500-
...WEST CENTRAL VALLEYS...

CITY           SKY/WX    TMP DP  RH WIND       PRES   REMARKS
GRAND JUNCTION FAIR      50  29  44 S9        29.92F
MONTROSE       FAIR      48  27  44 S7        29.98S
EAGLE          SUNNY     43  28  56 CALM      30.04F
RIFLE          FAIR      45  32  60 CALM      29.98F
DELTA          FAIR      51  27  40 E5        29.96S
NUCLA          FAIR      46  28  49 E6        30.00R
$$

COZ017>023-064>068-231500-
...SOUTHWEST COLORADO...

CITY           SKY/WX    TMP DP  RH WIND       PRES   REMARKS
DURANGO        FAIR      45  28  51 E3        30.04R
CORTEZ         FAIR      45  31  58 CALM      29.98S
PAGOSA SPRINGS FAIR      48  23  37 E3        30.07S
TELLURIDE      FAIR      43  24  47 CALM      30.08R
WOLF CREEK PAS   N/A     30  19  64 SW24G33   30.20S WCI  16
$$

COZ009-010-012-014-032>034-037-058>063-231500-
...CENTRAL COLORADO...

CITY           SKY/WX    TMP DP  RH WIND       PRES   REMARKS
ASPEN          FAIR      42  26  53 CALM      30.01F
BUENA VISTA    FAIR      45  24  43 CALM      30.04S
COPPER MTN     NOT AVBL
BERTHOUD PASS  FAIR      28  19  69 SW8       30.17S WCI  20
COTTONWOOD PAS FAIR      45  23  42 CALM      30.09S
GUNNISON       FAIR      37  27  65 CALM      30.07S
KREMMLING      FAIR      37  28  70 CALM      30.06S
LEADVILLE      FAIR      36  19  50 N3        30.07S
MONARCH PASS   FAIR      34  18  51 S6        30.27S WCI  29
SALIDA         FAIR      44  26  50 CALM      30.10S
SUNLIGHT       FAIR      36  21  55 CALM      30.14S
WILKERSON PASS FAIR      36  19  51 S3        30.17S
$$

COZ069>075-231500-
...SAN LUIS VALLEY/SANGRE DE CRISTO MOUNTAINS...

CITY           SKY/WX    TMP DP  RH WIND       PRES   REMARKS
ALAMOSA        FAIR      51  28  41 S8        30.04R
LA VETA PASS   FAIR      41  21  45 S3        30.16S
SAGUACHE       FAIR      45  27  49 W3        30.06R
$$

COZ035-036-038>040-231500-
...NORTHERN COLORADO FRONT RANGE...

CITY           SKY/WX    TMP DP  RH WIND       PRES   REMARKS
DENVER INTL AP FAIR      51  36  56 SE12      29.96S
DMNS CITY PARK   N/A     53  32  44 E16G22    29.96F
AURORA         MOSUNNY   51  33  49 SE15      29.97S
FRONT RANGE AP MOSUNNY   50  34  53 SE14G21   29.98R
ERIE MUNI ARPT FAIR      55  34  45 S9        29.96S
BOULDER MUN AP FAIR      54  41  62 SE8       29.95F
CENTENNIAL     FAIR      50  31  48 S13       29.98R
BROOMFIELD     MOSUNNY   54  36  50 SE8       29.97S
FORT COLLINS   FAIR      54  39  58 S10       29.96S
LONGMONT       FAIR      56  43  61 CALM      29.97S
$$

COZ041-046-047-076>085-087-088-231500-
...PIKES PEAK/PALMER DIVIDE AND SOUTHERN FOOTHILLS...

CITY           SKY/WX    TMP DP  RH WIND       PRES   REMARKS
COLO. SPRINGS  FAIR      52  28  39 E3        30.02R
A. F. ACADEMY  FAIR      50  34  53 S9        30.00S
SCHRIEVER AFB  NOT AVBL
ELLICOTT       FAIR     N/A N/A N/A E20G30    29.98R
FALCON         FAIR      49  27  42 NE12      30.03R
FORT CARSON    FAIR      53  31  43 CALM      30.00R
LIMON          FAIR      55  31  39 NE13G20   29.97R
MONUMENT HILL  FAIR      45  32  61 E14       30.03S
TRINIDAD       PTSUNNY   52  37  56 W7        30.01R
$$

COZ042>045-048>051-090-091-231500-
...NORTHEAST COLORADO...

CITY           SKY/WX    TMP DP  RH WIND       PRES   REMARKS
GREELEY ARPT   FAIR      55  39  54 SW8       29.96S
AKRON          PTSUNNY   56  35  45 NE8       29.95S
BURLINGTON     FAIR      60  43  53 NE13      29.92S
WRAY           NOT AVBL
STERLING       CLOUDY    55  36  47 N6        29.92S
HOLYOKE        FAIR      63  41  45 NW9       29.92R
FORT MORGAN    FAIR      54  37  52 NW5       29.95F
$$

COZ086-089-092>099-231500-
...SOUTHEAST COLORADO...

CITY           SKY/WX    TMP DP  RH WIND       PRES   REMARKS
PUEBLO         FAIR      58  32  37 CALM      29.97S
LA JUNTA       FAIR      62  38  40 NE5       29.92R
LAMAR          FAIR      64  44  48 NE9       29.85R
SPRINGFIELD      N/A     59  51  75 NW18      29.88R
$$




USA.gov is the U.S. government's official web portal to all federal, state and local government web resources and services.